Kansas City International, MO

10:46 PM CDT on April 24, 2017 (GMT -0500)
Kansas City International

Weather History for KMCI - May, 2013

Change the Weather History Date:

Friday, May 31, 2013

  Actual Average Record
Temperature  
Mean Temperature 68 °F 69 °F  
Max Temperature 75 °F 79 °F 102 °F (1934)
Min Temperature 61 °F 59 °F 42 °F (1889)
Degree Days  
Heating Degree Days 0 1  
Month to date heating degree days 156 104  
Since 1 July heating degree days 5185 5124  
Cooling Degree Days 3 5  
Month to date cooling degree days 92 88  
Year to date cooling degree days 105 116  
Growing Degree Days 18 (Base 50)    
Moisture  
Dew Point 61 °F    
Average Humidity 79    
Maximum Humidity 93    
Minimum Humidity 64    
Precipitation  
Precipitation 0.42 in 0.17 in 2.44 in (1996)
Month to date precipitation 6.46 5.23  
Year to date precipitation 14.93 13.83  
Snow  
Snow 0.00 in 0.00 in 0.00 in ()
Month to date snowfall 0.5 0.0  
Since 1 July snowfall 31.8 18.8  
Snow Depth 0.00 in    
Sea Level Pressure  
Sea Level Pressure 29.71 in    
Wind  
Wind Speed 9 mph (SSE)    
Max Wind Speed 26 mph    
Max Gust Speed 32 mph    
Visibility 9 miles    
Events Rain , Thunderstorm    
T = Trace of Precipitation, MM = Missing Value Source: NWS Daily Summary

Daily Weather History Graph

Daily Weather History Graph

Search for Another Location

Airport or City:

Trip Planner

Search our weather history database for the weather conditions in past years. The results will help you decide how hot, cold, wet, or windy it might be!

Date:

Astronomy

May. 31, 2013 Rise Set
Actual Time 5:54 AM CDT 8:39 PM CDT
Civil Twilight 5:22 AM CDT 9:10 PM CDT
Nautical Twilight 4:43 AM CDT 9:50 PM CDT
Astronomical Twilight 3:58 AM CDT 10:35 PM CDT
Moon 1:15 AM CDT (5/31) 1:08 PM CDT (5/31)
Length of Visible Light 15h 47m
Length of Day
14h 44m
Waning Gibbous, 51% of the Moon is Illuminated
May 31
Waning Gibbous
May 31
Last Quarter
Jun 8
New
Jun 16
First Quarter
Jun 23
Full

Hourly Weather History & Observations

Time (CDT) Temp. Dew Point Humidity Pressure Visibility Wind Dir Wind Speed Gust Speed Precip Events Conditions
12:53 AM 64.9 °F 62.1 °F 90% 29.70 in 10.0 mi South 9.2 mph - N/A   Mostly Cloudy
1:53 AM 66.0 °F 63.0 °F 90% 29.74 in 10.0 mi WNW 3.5 mph - N/A   Mostly Cloudy
2:53 AM 63.0 °F 61.0 °F 93% 29.72 in 9.0 mi Calm Calm - N/A   Scattered Clouds
3:53 AM 64.0 °F 62.1 °F 93% 29.75 in 6.0 mi Variable 3.5 mph - 0.03 in Rain , Thunderstorm Light Thunderstorms and Rain
4:53 AM 63.0 °F 59.0 °F 87% 29.69 in 10.0 mi South 19.6 mph - 0.11 in Rain , Thunderstorm Light Thunderstorms and Rain
5:49 AM 62.6 °F 57.2 °F 82% 29.65 in 10.0 mi SSE 16.1 mph - 0.06 in Rain Light Rain
5:53 AM 62.1 °F 57.0 °F 84% 29.61 in 10.0 mi SSE 19.6 mph - 0.06 in Rain Light Rain
6:00 AM 62.6 °F 57.2 °F 82% 29.64 in 10.0 mi SSE 17.3 mph - 0.00 in Rain Light Rain
6:26 AM 60.8 °F 57.2 °F 88% 29.68 in 8.0 mi South 13.8 mph - 0.07 in Rain , Thunderstorm Thunderstorms and Rain
6:53 AM 61.0 °F 57.9 °F 90% 29.68 in 6.0 mi SE 21.9 mph 28.8 mph 0.14 in Rain Light Rain
6:58 AM 60.8 °F 57.2 °F 88% 29.68 in 5.0 mi SE 23.0 mph 28.8 mph 0.01 in Rain , Thunderstorm Heavy Thunderstorms and Rain
7:28 AM 60.8 °F 57.2 °F 88% 29.69 in 9.0 mi SE 19.6 mph 28.8 mph 0.05 in Rain Light Rain
7:53 AM 61.0 °F 57.9 °F 90% 29.68 in 10.0 mi SE 16.1 mph 23.0 mph 0.05 in   Mostly Cloudy
8:23 AM 62.6 °F 59.0 °F 88% 29.70 in 10.0 mi SE 18.4 mph 25.3 mph 0.00 in   Overcast
8:53 AM 62.1 °F 57.9 °F 86% 29.69 in 10.0 mi SE 17.3 mph 26.5 mph 0.00 in   Overcast
9:18 AM 62.6 °F 57.2 °F 82% 29.73 in 10.0 mi SSE 5.8 mph - N/A   Overcast
9:53 AM 63.0 °F 59.0 °F 87% 29.73 in 10.0 mi SE 13.8 mph - 0.02 in Rain Light Rain
10:14 AM 62.6 °F 60.8 °F 94% 29.75 in 10.0 mi SE 12.7 mph - 0.00 in   Overcast
10:53 AM 64.0 °F 59.0 °F 84% 29.73 in 10.0 mi SE 13.8 mph - 0.00 in Rain Light Rain
11:53 AM 64.9 °F 60.1 °F 84% 29.74 in 10.0 mi SE 10.4 mph - 0.00 in   Overcast
12:53 PM 64.9 °F 60.1 °F 84% 29.75 in 10.0 mi ESE 5.8 mph - 0.01 in   Overcast
1:53 PM 66.9 °F 61.0 °F 81% 29.73 in 10.0 mi ESE 8.1 mph - N/A   Overcast
2:47 PM 69.8 °F 60.8 °F 73% 29.73 in 10.0 mi East 3.5 mph - N/A   Mostly Cloudy
2:53 PM 69.1 °F 62.1 °F 78% 29.70 in 10.0 mi Variable 3.5 mph - N/A   Mostly Cloudy
3:53 PM 70.0 °F 63.0 °F 78% 29.72 in 10.0 mi SSW 5.8 mph - N/A   Mostly Cloudy
4:53 PM 73.0 °F 64.9 °F 76% 29.69 in 10.0 mi West 4.6 mph - N/A   Scattered Clouds
5:53 PM 73.9 °F 64.0 °F 71% 29.70 in 10.0 mi SSE 4.6 mph - N/A   Scattered Clouds
6:53 PM 75.0 °F 63.0 °F 66% 29.70 in 10.0 mi SE 6.9 mph - N/A   Scattered Clouds
7:53 PM 70.0 °F 64.0 °F 81% 29.68 in 10.0 mi South 8.1 mph - N/A   Scattered Clouds
8:53 PM 68.0 °F 64.0 °F 87% 29.70 in 10.0 mi South 6.9 mph - N/A   Mostly Cloudy
9:53 PM 66.9 °F 63.0 °F 87% 29.73 in 10.0 mi South 8.1 mph - N/A   Mostly Cloudy
10:53 PM 66.0 °F 62.1 °F 87% 29.73 in 10.0 mi South 8.1 mph - N/A   Mostly Cloudy
11:53 PM 64.9 °F 63.0 °F 93% 29.73 in 10.0 mi South 8.1 mph - N/A   Overcast